Orbital Elements at Epoch 2459200.5 (2020-Dec-17.0) TDB
Reference: JPL 25 (heliocentric ecliptic J2000)
Element | Value | Uncertainty (1-sigma) | Units |
e | .1668990743851288 | 3.531e-08 | |
a | 3.022210246863724 | 1.8697e-08 | au |
q | 2.517806154064917 | 1.1077e-07 | au |
i | 1.758194468117336 | 3.9059e-06 | deg |
node | 238.0922852141723 | 0.00016075 | deg |
peri | 222.4006520235661 | 0.0001614 | deg |
M | 352.9399963957215 | 1.5054e-05 | deg |
tp | 2459238.134648092366 (2021-Jan-23.63464809) | 8.038e-05 | TDB |
period | 1919.046231795277 5.25 | 1.7808e-05 4.876e-08 | d yr |
n | .1875931877176395 | 1.7408e-09 | deg/d |
Q | 3.526614339662532 | 2.1817e-08 | au |
|
| | Orbit Determination Parameters
Additional Information
|